Miscellaneous Local Product
Issued by NWS North Platte, NE

Home | Current Version | Previous Version | Text Only | Print | Product List | Glossary On
Versions: 1 2 3 4 5 6 7 8 9 10 11 12 13 14 15 16 17 18 19 20 21 22 23 24 25 26 27 28 29 30 31 32 33 34 35 36 37 38 39 40 41 42 43 44 45 46 47 48 49 50
000
AXUS43 KLBF 240310
MISLBF


WESTERN AND NORTH CENTRAL NEBRASKA HOURLY WEATHER ROUNDUP
NATIONAL WEATHER SERVICE NORTH PLATTE NE
1000 PM CDT TUE APR 23 2019

NOTE: "FAIR" INDICATES FEW OR NO CLOUDS BELOW 12,000 FEET WITH NO
SIGNIFICANT WEATHER AND/OR OBSTRUCTIONS TO VISIBILITY.

NOTE: STATIONS NOT REPORTING SKY/WEATHER AND PRESSURE ARE
PROVIDED BY RAWS AND APRS NETWORKS AND ARE NOT UNDER NATIONAL
WEATHER SERVICE QUALITY CONTROL.

...OBSERVATIONS IN AND NEAR THE EASTERN PANHANDLE OF NEBRASKA...

CITY           SKY/WX    TMP DP  RH WIND       PRES   REMARKS
PINE RIDGE     CLEAR     53  43  68 E5        29.89S
GORDON         FAIR      55  43  63 SW6       29.91R
CHADRON        CLEAR     54  44  69 CALM      29.89R
ALLIANCE       CLEAR     48  42  80 S10       29.93R
SIDNEY         CLEAR     47  40  76 S9        29.98R
CRESCENT LAKE    N/A     55  41  60 S8          N/A
$$

...OBSERVATIONS IN NORTHERN NEBRASKA AND FAR SOUTHERN SOUTH DAKOTA...

CITY           SKY/WX    TMP DP  RH WIND       PRES   REMARKS
WINNER         FAIR      59  35  40 S17       29.89R
VALENTINE      CLEAR     58  37  45 S9        29.91R
AINSWORTH      CLEAR     53  37  54 S10       29.94S
O`NEILL        FAIR      55  36  49 S9        29.97S
THEDFORD       CLEAR     57  36  45 S10       29.96S
BROKEN BOW     FAIR      51  38  60 SE5       29.98S
ORD            FAIR      54  35  48 SE5       29.98S
ALBION         CLEAR     52  35  52 CALM      30.00S
EWING            N/A     52  37  57 CALM        N/A
BUTTE            N/A     56  38  50 SE12        N/A
SPRINGVIEW       N/A     58  38  48 SE3G14      N/A
VALENTINE NWR    N/A     54  39  57 S5          N/A
HALSEY           N/A     57  30  36 SE6         N/A
$$

...OBSERVATIONS IN SOUTHWEST NEBRASKA AND FAR NORTHEAST COLORADO...

CITY           SKY/WX    TMP DP  RH WIND       PRES   REMARKS
WRAY           FAIR      54  32  43 SE12      29.99R
HOLYOKE        FAIR      54  37  54 S8        29.99R
IMPERIAL       CLEAR     48  30  49 SE9       29.98S
OGALLALA       CLEAR     55  37  49 S9        29.97R
NORTH PLATTE   CLEAR     50  37  61 S5        29.98R
MCCOOK         CLEAR     53  30  41 S7        30.00R
LEXINGTON      FAIR      56  31  39 CALM      30.00R
CALLAWAY         N/A     52  38  58 S7          N/A
STAPLETON        N/A     50  35  56 SE3         N/A
$$

...OBSERVATIONS IN CENTRAL LINCOLN COUNTY AREA...

CITY           SKY/WX    TMP DP  RH WIND       PRES   REMARKS
N.P. AIRPORT   CLEAR     50  37  61 S5        29.98R
N.P. HILLCREST   N/A     54  37  53 E5          N/A
N.P. SOUTHEAST   N/A     55  35  47 S5          N/A
$$

...OBSERVATIONS ACROSS THE ROCKIES AND WESTERN HIGH PLAINS...

CITY           SKY/WX    TMP DP  RH WIND       PRES   REMARKS
SCOTTSBLUFF    CLEAR     54  41  61 CALM      29.93R
KIMBALL        CLEAR     50  37  61 S6        29.99R
CHEYENNE       CLEAR     54  41  61 CALM      30.03R
DENVER         PTCLDY    54  40  59 N8        29.99R
STEAMBOAT      FAIR      50  31  48 NW5       30.08
LEADVILLE      PTCLDY    34  25  69 VRB3      30.18R
ASPEN          CLOUDY    49  31  49 SW7       30.09R
GUNNISON       MOCLDY    46  34  62 N5        30.10R
TELLURIDE      CLOUDY    45  32  61 E7        30.20
LARAMIE        CLEAR     47  34  60 N8        30.07R
CASPER         PTCLDY    45  36  70 W3        29.98R
SHERIDAN       PTCLDY    52  40  63 W6        29.92R
JACKSON HOLE   CLOUDY    47  34  60 W6        30.12R
YELLOWSTONE      N/A     37  30  75 CALM      30.18R
$$

...OBSERVATIONS ACROSS THE NORTHERN PLAINS...

CITY           SKY/WX    TMP DP  RH WIND       PRES   REMARKS
RAPID CITY     MOCLDY    57  42  57 E5        29.88R
PIERRE         MOCLDY    64  40  41 S5        29.82S
SIOUX FALLS    CLEAR     53  37  54 S7        29.97F
ABERDEEN       PTCLDY    58  41  53 S18G28    29.84S
WILLISTON      CLOUDY    64  37  36 W13       29.76R
DICKINSON      PTCLDY    53  39  59 W6        29.80S
BISMARCK       MOCLDY    63  41  44 W10       29.77R
FARGO          CLOUDY    62  42  47 S16       29.78F
$$

...OBSERVATIONS ACROSS THE CENTRAL AND SOUTHERN PLAINS...

CITY           SKY/WX    TMP DP  RH WIND       PRES   REMARKS
OMAHA          CLOUDY    59  33  37 SE8       29.98S
GRAND ISLAND   CLOUDY    48  33  56 NE5       30.00S
KANSAS CITY    MOCLDY    52  48  86 SE3       30.00R
WICHITA        CLOUDY    55  48  77 CALM      30.01S
DODGE CITY     CLOUDY    50  41  71 NW8       30.02F
OKLAHOMA CITY  CLOUDY    56  54  93 N9        30.00R
DALLAS         CLOUDY    70  67  90 E10       29.90F THUNDER
AMARILLO       CLEAR     44  39  82 NE8       30.06R
$$



USA.gov is the U.S. government's official web portal to all federal, state and local government web resources and services.